Tracking 17842 objects as of 29-August-2016
HD Live streaming from Space Station
objects crossing your sky now

GOES 4 AKM

Track GOES 4 AKM now!


NORAD ID: 11970
Int'l Code: 1980-074C
Perigee: 33,759.9 km
Apogee: 50,298.0 km
Inclination: 23.5 °
Period: 1,766.1 minutes
Semi major axis: 48399 km
RCS: 0.003 m2 (small)
Launch date: September 9, 1980
Source: United States (US)
Launch site: AIR FORCE EASTERN TEST RANGE (AFETR)

Note: This is a ROCKET BODY
Your satellite tracking list
Your tracking list is empty





NASA's NSSDC Master Catalog

Two Line Element Set (TLE):
1 11970U 80074C   16241.92903811 -.00000287 +00000-0 +00000-0 0  9992
2 11970 023.5056 345.0941 1708484 184.1392 134.5678 00.81533450009335
Source of the keplerian elements: AFSPC

N2YO: 511